Location: Newark
(35.8582°N, 82.7116°W)
Time: 14:08:05
(UTC+00:00)

Hubble Space Telescope - Pass Details

Date: 02 October 2019
Orbit: 536 x 540 km, 28.5° (Epoch: 14 October)

Event Time Altitude Azimuth Distance (km) Brightness Sun altitude
Rises 00:24:12 0° 229° (SW) 2,671 5.0 -14.9°
Reaches altitude 10° 00:26:57 10° 211° (SSW) 1,781 3.7 -15.4°
Maximum altitude 00:29:54 19° 165° (SSE) 1,305 2.5 -16.0°
Enters shadow 00:30:43 18° 149° (SSE) 1,348 2.4 -16.2°
